Temp
-12 -12 -12 -13 -13 -14 -14 -15 -15 -15 -15 -16 -16 -17 -17 -17 -17 -17 -17 -17 -17 -17 -17 -16 -16 -16 -17 -17 -17 -17 -18 -18 -17 -17 -16 -16 -15 -15 -14 -14 -14 -13 -13 -13 -12 -12 -12
-11 -12 -13 -13 -14 -14 -15 -15 -16 -16 -16 -16 -17 -17 -17 -17 -17 -17 -17 -17 -17 -17 -17 -17 -17 -17 -17 -18 -17 -18 -18 -18 -17 -17 -17 -16 -16 -15 -14 -14 -14 -14 -13 -13 -12 -12 -11
-12 -13 -13 -14 -14 -15 -16 -16 -17 -17 -17 -18 -18 -19 -19 -19 -19 -18 -18 -18 -18 -18 -18 -18 -18 -17 -18 -19 -18 -18 -18 -18 -18 -17 -17 -16 -15 -14 -15 -15 -14 -14 -14 -14 -15 -14 -11
-13 -13 -14 -15 -15 -16 -17 -17 -17 -18 -18 -19 -19 -20 -20 -21 -21 -20 -20 -19 -19 -19 -19 -19 -18 -18 -18 -19 -19 -19 -18 -18 -18 -17 -17 -16 -15 -15 -16 -18 -18 -18 -18 -17 -18 -17 -17
-13 -14 -15 -16 -17 -17 -18 -18 -19 -19 -20 -20 -21 -22 -22 -23 -23 -23 -21 -21 -20 -20 -20 -20 -19 -19 -19 -19 -19 -19 -19 -18 -18 -17 -18 -18 -17 -18 -19 -20 -21 -20 -20 -20 -20 -20 -19
-14 -15 -16 -17 -17 -18 -19 -19 -20 -21 -22 -22 -22 -24 -24 -24 -24 -24 -23 -22 -22 -21 -20 -20 -20 -20 -19 -19 -19 -19 -18 -18 -18 -18 -19 -20 -20 -20 -21 -21 -21 -21 -20 -20 -20 -20 -20
-15 -17 -18 -18 -19 -20 -20 -21 -22 -22 -23 -24 -24 -24 -24 -24 -26 -25 -24 -23 -22 -21 -21 -21 -20 -20 -20 -20 -19 -19 -19 -19 -19 -20 -20 -21 -21 -21 -21 -21 -21 -20 -20 -20 -20 -19 -19
-16 -17 -18 -20 -22 -22 -22 -22 -22 -23 -24 -25 -25 -26 -28 -28 -27 -26 -24 -23 -22 -21 -21 -21 -21 -20 -20 -20 -19 -19 -19 -20 -20 -21 -21 -20 -21 -21 -20 -20 -20 -20 -20 -20 -20 -19 -19
-17 -18 -21 -21 -21 -22 -22 -23 -24 -25 -25 -25 -27 -28 -29 -29 -28 -26 -25 -23 -22 -22 -22 -21 -21 -20 -20 -20 -19 -20 -20 -21 -21 -20 -20 -20 -20 -20 -20 -20 -20 -20 -19 -19 -19 -18 -18
-18 -20 -21 -21 -22 -22 -22 -23 -24 -25 -25 -27 -28 -28 -29 -29 -28 -26 -24 -23 -22 -22 -21 -21 -21 -20 -20 -20 -20 -20 -21 -21 -20 -20 -20 -20 -20 -20 -20 -20 -20 -19 -19 -18 -19 -19 -18
-19 -21 -21 -22 -23 -24 -25 -24 -25 -26 -28 -28 -28 -28 -29 -29 -28 -26 -24 -23 -22 -22 -21 -21 -20 -20 -20 -20 -20 -20 -20 -20 -20 -20 -20 -20 -20 -20 -20 -20 -19 -19 -19 -19 -18 -18 -18
-20 -22 -23 -23 -25 -26 -27 -26 -27 -28 -28 -28 -28 -28 -29 -29 -28 -25 -24 -23 -23 -22 -21 -21 -20 -20 -20 -20 -20 -20 -20 -20 -20 -20 -20 -20 -20 -20 -19 -19 -19 -19 -19 -18 -18 -18 -18
-20 -23 -24 -25 -26 -27 -27 -28 -28 -28 -28 -28 -28 -28 -29 -28 -25 -24 -23 -23 -22 -22 -21 -21 -20 -20 -21 -20 -20 -20 -20 -20 -20 -20 -20 -19 -19 -19 -20 -19 -19 -19 -18 -18 -18 -18 -17
-19 -22 -23 -25 -26 -26 -26 -27 -27 -27 -28 -28 -27 -28 -27 -25 -24 -23 -22 -22 -22 -22 -21 -21 -20 -21 -21 -20 -20 -20 -20 -20 -20 -20 -19 -19 -19 -19 -19 -19 -19 -18 -18 -17 -17 -17 -17
-19 -21 -22 -24 -25 -26 -26 -26 -26 -26 -26 -27 -26 -25 -24 -23 -23 -23 -23 -23 -22 -21 -21 -21 -21 -21 -21 -20 -20 -20 -20 -20 -20 -20 -19 -20 -19 -19 -19 -19 -19 -18 -18 -18 -17 -17 -16
-19 -19 -20 -22 -24 -24 -24 -24 -24 -24 -24 -24 -23 -23 -23 -23 -23 -23 -22 -22 -21 -21 -21 -21 -21 -20 -20 -20 -20 -20 -20 -20 -20 -19 -19 -19 -19 -19 -18 -18 -18 -18 -17 -17 -17 -16 -16
-17 -17 -18 -20 -22 -22 -22 -22 -22 -22 -22 -22 -22 -22 -22 -22 -22 -21 -21 -21 -21 -21 -20 -21 -20 -20 -20 -20 -20 -20 -20 -20 -19 -19 -19 -19 -19 -19 -18 -18 -18 -18 -17 -17 -16 -16 -16
-15 -16 -15 -17 -18 -19 -20 -20 -20 -20 -21 -21 -21 -20 -21 -21 -21 -20 -20 -20 -20 -20 -20 -21 -20 -20 -20 -20 -19 -19 -19 -20 -19 -19 -19 -19 -19 -19 -18 -18 -17 -17 -17 -16 -16 -15 -16
-13 -15 -14 -15 -16 -18 -18 -19 -19 -19 -20 -20 -20 -19 -20 -20 -20 -20 -20 -20 -20 -20 -21 -21 -20 -20 -20 -20 -20 -20 -20 -19 -19 -19 -19 -19 -19 -19 -18 -18 -17 -16 -16 -16 -15 -15 -15
-13 -13 -13 -14 -14 -16 -17 -17 -18 -18 -19 -19 -19 -19 -19 -19 -19 -19 -19 -19 -19 -20 -21 -20 -20 -20 -20 -20 -20 -19 -19 -19 -19 -19 -19 -18 -18 -18 -18 -18 -17 -17 -16 -16 -16 -15 -14
-12 -13 -13 -14 -14 -14 -15 -16 -17 -18 -18 -18 -19 -19 -19 -19 -19 -19 -19 -19 -20 -20 -21 -20 -20 -19 -19 -19 -19 -19 -19 -19 -19 -19 -19 -19 -18 -18 -18 -17 -17 -17 -16 -16 -15 -16 -15
-12 -13 -12 -13 -14 -14 -15 -16 -16 -17 -18 -18 -18 -18 -19 -19 -19 -19 -20 -20 -20 -20 -20 -19 -19 -19 -19 -19 -19 -19 -19 -19 -19 -19 -19 -18 -18 -18 -18 -17 -17 -16 -16 -16 -16 -15 -16
-12 -12 -12 -12 -13 -13 -13 -14 -16 -16 -17 -18 -18 -18 -19 -19 -19 -19 -20 -20 -20 -20 -20 -19 -19 -19 -19 -19 -19 -19 -19 -19 -19 -19 -19 -18 -18 -18 -18 -17 -17 -17 -17 -16 -16 -16 -15
-12 -12 -12 -11 -11 -12 -13 -13 -14 -15 -15 -16 -17 -17 -17 -18 -18 -18 -18 -19 -19 -19 -19 -19 -19 -19 -19 -19 -19 -19 -19 -19 -19 -18 -19 -18 -18 -18 -18 -17 -17 -18 -17 -17 -17 -17 -16
-12 -12 -12 -12 -11 -11 -12 -12 -12 -13 -14 -14 -14 -14 -15 -15 -15 -15 -16 -17 -18 -18 -19 -19 -19 -19 -19 -18 -19 -18 -19 -19 -18 -18 -18 -18 -18 -18 -18 -18 -17 -17 -17 -17 -16 -16 -16
-12 -11 -12 -13 -12 -11 -11 -12 -12 -12 -12 -13 -12 -12 -13 -14 -14 -13 -14 -14 -16 -17 -18 -18 -19 -19 -19 -19 -18 -18 -19 -18 -19 -18 -18 -18 -18 -18 -17 -17 -17 -17 -16 -16 -16 -16 -16
-12 -12 -11 -12 -12 -12 -11 -11 -11 -12 -12 -12 -12 -11 -11 -12 -12 -12 -12 -13 -13 -14 -15 -16 -17 -17 -18 -18 -18 -18 -18 -18 -18 -18 -18 -18 -18 -17 -17 -16 -17 -17 -16 -16 -16 -15 -15
-11 -12 -12 -11 -12 -13 -12 -11 -11 -11 -11 -11 -12 -12 -11 -11 -11 -12 -12 -12 -12 -12 -13 -13 -14 -14 -15 -15 -16 -16 -16 -17 -16 -16 -16 -15 -15 -15 -15 -15 -15 -15 -16 -15 -15 -15 -15
-11 -11 -12 -13 -12 -12 -13 -13 -11 -11 -11 -11 -11 -12 -12 -11 -11 -12 -12 -12 -12 -12 -12 -13 -13 -13 -13 -13 -13 -13 -14 -14 -14 -14 -14 -14 -14 -14 -14 -14 -14 -14 -14 -14 -14 -14 -14
Height
5742 5733 5724 5715 5706 5698 5691 5684 5676 5668 5662 5656 5649 5644 5641 5638 5637 5637 5636 5637 5638 5640 5640 5643 5646 5646 5645 5644 5645 5650 5646 5646 5646 5646 5646 5645 5644 5643 5640 5638 5636 5638 5641 5642 5644 5644 5644
5730 5720 5711 5701 5692 5684 5675 5667 5658 5650 5644 5637 5633 5627 5623 5621 5619 5619 5619 5621 5623 5626 5628 5631 5633 5635 5635 5635 5638 5639 5639 5638 5638 5636 5635 5634 5633 5632 5630 5625 5624 5624 5627 5627 5628 5627 5628
5721 5712 5702 5691 5680 5669 5659 5649 5641 5633 5626 5619 5615 5610 5606 5603 5602 5601 5602 5604 5607 5611 5614 5618 5621 5624 5627 5625 5628 5631 5630 5630 5628 5627 5625 5624 5622 5620 5616 5612 5611 5611 5614 5612 5610 5610 5614
5709 5697 5685 5672 5660 5650 5640 5632 5624 5617 5611 5605 5599 5594 5589 5585 5584 5583 5584 5587 5590 5596 5601 5606 5609 5614 5618 5618 5621 5622 5622 5622 5620 5618 5615 5612 5610 5608 5605 5603 5601 5602 5600 5601 5596 5595 5595
5696 5682 5668 5656 5645 5634 5624 5614 5604 5598 5592 5585 5579 5572 5567 5565 5563 5565 5568 5572 5576 5583 5588 5594 5600 5605 5610 5611 5613 5614 5615 5614 5612 5608 5605 5602 5600 5599 5599 5598 5597 5596 5593 5591 5591 5590 5589
5683 5669 5654 5640 5627 5616 5605 5594 5584 5577 5568 5563 5558 5551 5547 5544 5543 5547 5551 5556 5562 5569 5576 5583 5591 5598 5603 5605 5606 5608 5608 5605 5602 5600 5597 5596 5595 5596 5597 5595 5593 5591 5589 5589 5589 5590 5588
5668 5652 5638 5624 5610 5597 5586 5574 5563 5554 5546 5539 5533 5531 5523 5522 5521 5528 5538 5545 5554 5561 5569 5579 5584 5589 5594 5598 5600 5602 5600 5597 5595 5594 5593 5595 5594 5594 5595 5593 5591 5590 5590 5590 5590 5590 5589
5655 5638 5621 5606 5592 5574 5561 5557 5548 5536 5525 5516 5509 5504 5497 5498 5505 5515 5528 5537 5543 5550 5560 5569 5577 5584 5589 5593 5596 5595 5594 5593 5592 5591 5593 5594 5593 5593 5592 5592 5591 5591 5591 5589 5589 5588 5589
5642 5627 5611 5597 5581 5571 5553 5538 5528 5518 5508 5502 5493 5487 5486 5489 5495 5506 5519 5528 5536 5546 5555 5565 5573 5580 5586 5588 5590 5590 5590 5590 5590 5591 5592 5591 5592 5591 5590 5591 5592 5591 5591 5590 5588 5587 5589
5632 5616 5603 5590 5578 5561 5543 5531 5515 5503 5496 5488 5485 5482 5481 5483 5492 5499 5509 5524 5535 5543 5554 5564 5570 5577 5581 5584 5586 5585 5586 5589 5589 5591 5591 5591 5592 5591 5590 5591 5591 5592 5593 5590 5589 5588 5588
5623 5608 5593 5577 5561 5548 5535 5520 5505 5493 5485 5483 5482 5480 5479 5480 5486 5494 5505 5520 5532 5543 5552 5563 5568 5572 5577 5582 5584 5585 5587 5589 5590 5591 5592 5592 5592 5590 5590 5592 5592 5595 5593 5590 5590 5589 5591
5616 5598 5581 5561 5543 5527 5514 5503 5492 5487 5485 5483 5482 5481 5478 5479 5487 5495 5508 5520 5533 5545 5554 5560 5565 5571 5575 5580 5583 5586 5588 5590 5590 5590 5593 5593 5592 5592 5593 5593 5594 5593 5594 5594 5593 5593 5594
5607 5585 5563 5542 5523 5510 5499 5493 5490 5488 5486 5484 5483 5481 5478 5484 5494 5504 5515 5528 5539 5547 5555 5561 5565 5570 5576 5580 5584 5587 5589 5589 5591 5593 5593 5594 5593 5594 5594 5595 5594 5594 5594 5599 5598 5597 5597
5599 5575 5552 5533 5520 5512 5505 5500 5495 5491 5487 5483 5481 5481 5485 5493 5503 5514 5525 5538 5546 5551 5556 5561 5566 5572 5578 5582 5586 5588 5589 5591 5592 5594 5595 5593 5596 5596 5597 5597 5598 5599 5599 5599 5599 5600 5600
5599 5576 5555 5541 5533 5524 5516 5508 5500 5494 5489 5485 5482 5489 5496 5506 5515 5525 5535 5541 5547 5554 5559 5563 5569 5575 5580 5584 5588 5590 5592 5592 5595 5596 5597 5597 5598 5598 5599 5600 5602 5602 5602 5603 5602 5602 5603
5602 5583 5565 5556 5545 5537 5529 5519 5510 5501 5498 5500 5503 5510 5514 5523 5530 5538 5543 5546 5555 5560 5563 5567 5572 5579 5583 5586 5590 5592 5594 5596 5597 5598 5598 5600 5601 5601 5603 5604 5605 5604 5606 5607 5607 5607 5607
5611 5596 5582 5569 5562 5556 5549 5542 5537 5531 5526 5528 5531 5532 5532 5537 5544 5550 5553 5556 5561 5565 5568 5573 5577 5582 5585 5589 5592 5594 5597 5599 5600 5600 5601 5602 5604 5606 5606 5607 5608 5610 5610 5611 5611 5613 5614
5625 5610 5600 5589 5582 5574 5567 5559 5556 5554 5552 5549 5555 5556 5552 5555 5559 5562 5563 5564 5567 5569 5571 5575 5582 5587 5589 5592 5596 5598 5600 5602 5603 5604 5605 5607 5608 5609 5610 5611 5612 5614 5615 5616 5619 5618 5619
5638 5625 5613 5607 5599 5594 5585 5579 5574 5571 5571 5571 5574 5571 5568 5569 5571 5572 5572 5573 5574 5574 5576 5582 5586 5590 5593 5597 5600 5601 5604 5605 5607 5608 5610 5611 5612 5613 5614 5617 5617 5619 5620 5622 5624 5624 5625
5651 5638 5626 5619 5615 5609 5603 5597 5591 5589 5587 5587 5587 5586 5584 5583 5581 5581 5580 5578 5577 5576 5578 5585 5591 5594 5598 5600 5603 5605 5608 5610 5610 5612 5614 5616 5616 5617 5619 5619 5621 5623 5625 5626 5629 5630 5632
5659 5649 5639 5634 5628 5623 5618 5613 5607 5604 5602 5599 5597 5596 5594 5591 5588 5586 5583 5581 5579 5579 5584 5589 5595 5600 5603 5605 5607 5610 5612 5614 5616 5617 5618 5620 5621 5621 5622 5623 5625 5626 5629 5631 5633 5635 5638
5666 5660 5650 5642 5639 5633 5628 5624 5620 5616 5612 5610 5606 5602 5599 5595 5591 5588 5586 5583 5582 5585 5591 5595 5600 5604 5609 5611 5615 5616 5618 5619 5620 5621 5622 5624 5625 5625 5627 5628 5630 5632 5633 5635 5637 5638 5640
5674 5665 5661 5653 5647 5644 5638 5634 5629 5624 5620 5615 5612 5607 5602 5599 5595 5590 5588 5586 5588 5592 5598 5603 5607 5611 5613 5617 5619 5621 5622 5624 5625 5626 5627 5627 5628 5629 5630 5631 5633 5636 5637 5638 5639 5641 5644
5680 5671 5666 5661 5654 5651 5647 5642 5638 5633 5627 5622 5617 5613 5607 5603 5598 5596 5593 5592 5594 5599 5606 5609 5613 5617 5619 5621 5623 5625 5626 5628 5629 5630 5631 5632 5632 5633 5633 5634 5636 5637 5638 5639 5641 5641 5640
5685 5677 5669 5665 5661 5656 5654 5650 5646 5642 5637 5632 5627 5621 5617 5612 5609 5606 5603 5601 5602 5604 5607 5612 5616 5619 5621 5623 5625 5627 5628 5630 5631 5632 5634 5634 5634 5635 5636 5636 5637 5638 5639 5641 5642 5643 5643
5690 5683 5675 5667 5665 5661 5657 5656 5652 5650 5647 5643 5639 5633 5628 5624 5622 5617 5615 5613 5613 5613 5613 5616 5619 5622 5625 5626 5627 5628 5630 5631 5631 5632 5633 5634 5635 5636 5637 5638 5639 5639 5640 5642 5643 5645 5645
5690 5685 5681 5672 5666 5663 5661 5660 5658 5654 5653 5651 5648 5645 5641 5637 5633 5630 5626 5624 5623 5622 5622 5622 5623 5624 5625 5626 5627 5628 5629 5629 5629 5630 5631 5632 5633 5635 5636 5637 5639 5639 5640 5643 5644 5648 5646
5691 5686 5680 5675 5670 5663 5661 5661 5661 5659 5656 5655 5653 5651 5650 5647 5644 5641 5637 5634 5632 5632 5632 5631 5630 5629 5629 5628 5628 5629 5629 5630 5630 5631 5631 5632 5633 5634 5635 5636 5639 5640 5641 5642 5644 5643 5643
5689 5686 5679 5676 5670 5667 5662 5660 5659 5660 5659 5657 5656 5655 5653 5652 5651 5649 5646 5643 5641 5639 5638 5638 5638 5637 5636 5635 5635 5634 5634 5634 5634 5634 5635 5636 5637 5637 5639 5640 5641 5642 5643 5643 5644 5644 5644
Wind_Speed
56 56 57 59 59 58 59 59 59 59 59 59 57 55 55 55 56 56 57 56 55 54 54 51 49 47 45 41 41 38 43 41 41 40 40 43 39 40 40 43 47 49 52 53 55 59 63
60 58 57 58 58 59 59 57 57 58 58 57 56 57 57 58 57 57 57 56 55 55 54 52 50 44 43 38 38 38 39 39 38 38 38 42 44 44 41 44 46 49 50 52 53 57 61
63 63 63 64 62 59 57 56 55 56 57 60 62 60 57 58 58 60 58 58 54 54 52 50 47 43 39 37 35 37 36 37 38 39 40 40 44 45 45 47 46 44 42 43 44 50 54
68 67 65 62 60 58 57 58 60 60 61 61 61 62 62 63 56 54 54 51 49 48 46 43 42 38 33 33 33 34 34 35 36 37 39 37 41 46 42 33 30 28 31 33 31 33 36
71 70 67 64 60 59 61 64 64 64 67 68 64 69 70 47 42 44 49 49 45 41 35 35 35 30 29 29 30 29 32 32 35 37 38 37 35 27 19 15 20 19 11 8 5 13 16
75 71 67 64 65 65 65 68 63 68 68 68 74 63 57 51 64 49 39 39 39 35 34 32 31 29 26 25 25 25 27 32 32 33 29 18 12 11 10 12 7 3 6 2 7 8 6
72 67 65 69 68 68 69 72 68 66 68 64 76 74 67 72 41 33 30 27 29 29 28 31 26 24 21 21 24 24 29 27 25 19 5 3 4 8 7 3 4 3 3 2 3 7 2
74 71 73 65 68 73 77 73 79 68 64 73 75 67 40 29 26 21 23 21 24 33 32 26 22 19 18 19 20 26 22 18 7 6 5 3 2 6 7 6 4 2 4 3 6 3 2
70 72 59 57 62 66 73 79 73 64 58 77 64 32 19 15 12 20 26 24 29 20 18 20 20 15 14 15 22 17 12 10 10 9 6 4 5 2 10 8 3 5 5 4 6 2 6
73 68 53 50 64 65 71 73 69 68 79 57 27 21 12 13 12 23 36 31 26 22 20 19 19 16 15 14 10 13 13 13 10 6 5 5 4 5 13 8 6 10 3 6 3 3 8
74 64 64 66 64 72 67 70 75 73 51 24 17 7 10 9 20 28 35 34 22 25 22 21 19 16 14 10 7 17 16 10 6 2 3 3 7 10 14 9 12 10 5 7 9 5 6
72 73 68 75 74 65 55 61 62 31 15 9 8 14 10 11 23 29 31 34 25 26 19 21 19 16 14 14 15 13 8 5 2 4 7 10 12 13 16 12 12 8 9 9 6 8 9
87 80 78 72 60 51 42 24 20 17 15 14 16 12 9 27 33 34 29 29 34 25 16 18 18 16 20 17 15 10 6 5 8 10 3 7 6 13 13 15 15 11 7 5 12 10 7
90 84 75 63 44 39 34 27 28 25 23 20 12 5 30 39 40 35 34 39 21 12 13 15 16 24 21 15 14 9 5 5 10 8 4 8 9 8 12 14 14 3 4 5 10 4 13
86 71 57 46 48 46 40 35 27 21 17 20 20 45 46 42 46 48 37 18 17 16 17 15 29 26 20 15 14 10 9 6 6 4 3 6 6 11 14 13 13 17 16 12 10 10 23
78 78 67 53 53 52 50 51 46 43 46 52 54 49 45 51 41 35 23 28 25 21 14 23 27 24 18 19 17 16 11 14 10 9 5 5 9 13 15 17 17 18 16 17 17 21 25
78 77 67 66 58 57 58 58 56 55 53 50 47 49 52 43 38 35 36 29 19 13 10 28 27 22 19 22 20 17 15 12 10 9 8 8 13 14 12 14 17 16 17 19 22 24 28
75 72 71 63 58 55 54 54 54 53 52 50 44 41 41 36 34 28 24 21 16 14 11 29 26 19 20 23 15 12 11 9 11 13 10 11 11 12 15 15 16 17 21 21 17 24 23
72 65 67 61 56 52 51 50 49 47 43 40 34 34 34 30 26 21 18 13 10 7 4 29 28 19 19 18 16 15 13 10 8 14 15 12 15 13 14 16 17 19 20 24 23 24 24
65 62 63 56 54 50 46 44 43 41 38 34 31 31 29 25 21 17 14 11 7 7 18 36 26 20 20 20 19 18 15 14 12 10 11 16 14 15 13 15 16 14 18 19 23 23 25
58 57 55 52 49 48 43 41 39 37 34 33 29 26 24 21 18 18 13 13 7 11 33 31 25 22 21 22 20 18 15 14 13 13 13 10 6 7 11 13 13 15 16 17 18 17 19
57 51 50 49 47 46 45 41 36 33 31 27 24 23 24 24 21 19 16 14 10 21 33 30 24 25 24 24 20 19 17 14 15 13 12 10 9 7 8 13 14 15 13 15 16 17 15
58 43 45 45 43 44 44 43 40 38 35 35 34 33 32 29 27 22 17 17 15 26 33 28 24 25 23 22 21 19 18 16 15 15 12 11 12 12 8 8 10 11 12 11 10 11 13
49 44 36 38 38 38 39 41 41 40 40 38 37 38 38 38 34 31 24 19 22 25 31 29 25 22 21 19 15 13 11 9 9 12 10 9 10 9 11 8 5 3 3 6 5 4 2
44 45 35 29 31 33 34 34 36 39 39 38 36 38 38 38 35 33 29 24 23 26 30 32 26 22 20 16 12 7 2 0 2 5 5 7 8 8 8 7 7 2 1 2 3 5 7
37 40 43 27 24 26 27 28 30 32 32 32 31 31 34 34 32 32 31 29 24 19 21 21 23 21 19 17 15 14 11 10 7 9 9 7 7 7 7 7 7 8 7 8 7 6 7
35 28 37 39 23 21 23 26 25 25 26 26 24 22 24 26 28 29 30 31 30 27 22 17 14 11 11 10 9 10 8 6 6 10 12 11 11 9 6 8 8 8 8 8 5 3 4
34 32 27 28 34 20 18 21 26 24 21 19 18 15 15 17 19 21 23 25 26 25 24 23 20 20 18 14 11 10 8 6 7 7 8 10 9 11 10 9 8 9 9 4 4 6 9
31 32 31 25 25 32 21 16 19 24 28 22 15 12 7 8 10 12 12 14 16 17 18 18 18 18 17 17 15 15 15 13 12 11 11 10 11 11 10 10 8 6 4 3 3 4 6
Wind_Direction
318 316 313 310 308 305 302 300 296 292 288 286 283 281 278 276 275 274 270 269 268 266 268 267 268 270 272 275 277 277 276 276 278 279 276 271 288 288 277 271 269 269 263 263 261 259 259
320 317 313 311 309 307 304 301 297 293 290 287 285 284 282 280 277 275 272 269 266 265 265 263 264 268 271 271 273 274 277 277 278 282 284 277 282 289 283 276 273 270 268 263 263 260 257
322 322 322 319 315 311 306 302 300 298 296 294 292 289 285 280 276 273 271 267 263 263 262 263 261 265 271 269 270 273 276 280 282 284 287 282 284 289 285 280 274 268 263 261 259 260 264
327 326 324 320 316 313 309 305 301 297 297 298 295 293 293 290 282 275 272 266 260 258 259 259 258 263 266 266 268 273 277 280 284 280 285 284 285 287 285 275 265 269 274 273 279 277 273
329 327 325 322 317 313 309 307 305 307 308 306 301 300 301 291 286 276 264 263 256 252 246 249 252 257 257 261 266 271 276 279 281 283 282 283 283 281 268 272 279 283 307 302 312 305 306
331 329 326 322 318 313 313 309 310 311 309 305 309 307 298 284 294 282 262 252 252 247 243 250 249 247 251 257 263 271 273 280 279 280 286 281 264 265 260 283 253 262 330 44 322 316 298
332 330 328 323 321 318 316 311 311 308 309 311 318 308 300 295 284 258 248 232 228 235 243 232 237 238 243 249 260 262 276 275 284 285 233 262 255 245 264 208 155 74 246 302 37 329 327
335 334 331 329 323 316 315 311 309 307 308 316 312 319 308 280 258 237 217 200 204 215 209 213 216 227 228 248 253 272 270 281 241 156 145 152 286 278 221 193 167 170 180 188 343 356 226
337 335 333 327 318 321 317 316 308 307 301 310 326 317 300 269 238 205 187 189 210 207 188 198 201 208 221 237 261 252 268 178 160 169 191 256 217 192 175 176 183 154 140 350 39 341 285
339 339 328 319 316 318 305 306 304 308 313 330 326 324 310 242 201 187 180 177 180 196 194 189 190 195 208 239 221 252 176 166 176 198 238 247 192 219 168 143 135 128 108 55 54 155 10
342 333 322 324 319 313 308 304 298 310 331 329 328 319 320 208 186 177 181 160 156 168 160 176 177 189 199 180 209 148 153 167 187 218 196 41 138 128 155 144 124 140 166 68 111 169 321
337 332 328 319 318 315 307 302 314 335 357 18 54 3 347 166 156 161 163 159 140 143 144 173 179 183 173 164 153 149 152 181 190 133 131 128 144 126 134 142 126 124 105 66 91 54 27
340 339 331 330 332 332 334 11 28 14 0 356 357 349 54 135 134 145 151 137 134 132 146 162 170 169 153 149 160 150 118 102 117 126 182 69 122 157 145 135 140 135 130 30 44 52 26
350 344 344 345 6 41 43 39 22 16 5 351 348 12 126 128 133 134 136 127 118 115 141 155 154 141 141 146 155 146 108 122 130 144 96 28 89 137 159 143 136 45 309 77 61 52 62
355 358 7 39 38 33 23 13 11 11 24 40 78 118 116 120 125 122 120 76 112 136 145 154 143 138 134 133 141 133 124 132 149 158 122 90 90 128 148 138 120 111 112 102 91 89 96
9 17 28 27 41 40 46 51 56 66 75 93 104 108 109 119 113 119 111 111 125 137 136 141 142 141 132 130 133 129 124 112 119 104 126 126 96 114 127 121 117 112 107 107 97 92 92
17 23 30 41 50 61 63 62 63 68 75 82 93 105 113 114 117 115 115 116 127 130 146 146 149 144 135 133 138 129 116 113 101 113 151 120 113 113 111 115 109 110 95 105 112 110 97
20 27 29 38 47 59 67 68 71 74 81 86 88 92 92 95 105 105 109 114 114 108 105 158 154 138 137 146 139 134 120 104 92 107 132 123 113 118 117 113 116 110 102 100 104 107 107
21 25 29 33 45 52 63 68 71 74 76 75 78 81 85 89 88 87 81 85 83 86 153 150 152 141 136 137 135 127 115 99 105 105 121 124 123 121 117 116 121 115 113 106 107 100 102
18 23 28 34 41 50 51 59 67 73 75 72 70 68 68 65 62 59 50 42 57 86 140 151 148 137 134 131 125 115 109 105 106 110 111 120 117 124 124 123 122 125 128 123 122 118 111
15 18 26 32 36 38 46 52 58 62 64 66 61 53 46 45 41 22 24 23 32 110 151 152 144 138 138 129 119 114 107 105 107 102 108 118 128 132 136 133 134 132 130 127 122 125 123
12 17 20 26 27 31 33 39 49 48 49 48 48 43 34 26 22 22 33 37 88 134 153 150 144 138 136 125 122 114 105 100 104 98 99 112 128 139 157 148 146 149 144 140 135 135 130
11 16 14 17 23 21 24 27 31 34 36 36 34 34 34 38 37 38 43 58 103 142 152 148 137 142 137 134 128 115 106 100 103 97 97 94 94 97 128 155 163 165 162 159 158 156 156
7 10 11 8 11 17 17 18 18 22 25 31 35 35 36 34 36 43 56 88 115 137 152 153 150 144 142 139 130 123 108 88 107 107 105 103 98 97 99 116 114 139 234 197 203 232 271
2 10 6 7 3 4 6 7 12 14 18 21 30 38 40 41 42 49 57 76 107 136 150 167 171 172 172 176 171 177 242 130 131 173 144 142 142 137 139 131 146 170 225 245 258 275 281
4 1 11 6 1 352 354 356 358 7 12 17 27 39 44 47 52 59 64 71 78 94 126 151 174 184 192 205 225 240 245 257 250 216 215 209 195 176 175 174 178 199 207 224 244 250 273
355 3 6 7 3 353 341 342 340 349 360 9 21 38 50 54 59 63 66 70 72 83 96 111 133 160 182 199 221 228 234 215 241 217 224 220 219 215 200 157 168 178 187 171 175 167 152
348 352 357 359 5 350 340 330 326 324 337 352 2 25 44 58 63 66 68 68 71 71 76 80 88 96 103 107 113 117 127 134 123 120 133 124 122 119 107 103 110 107 119 112 59 23 9
337 344 344 351 354 360 354 328 321 318 312 323 337 350 35 54 61 66 67 73 75 76 76 77 79 79 81 86 87 89 95 96 96 98 98 94 89 92 91 96 95 90 77 52 10 335 325